Warrenton, OR

1:56 AM PDT on August 29, 2016 (GMT -0700)
Astoria Regional

Weather History for KAST - March, 2014

Change the Weather History Date:

Tuesday, March 25, 2014

  Actual Average Record
Temperature  
Mean Temperature 53 °F 47 °F  
Max Temperature 56 °F 55 °F 69 °F (1934)
Min Temperature 50 °F 40 °F 27 °F (1996)
Degree Days  
Heating Degree Days 12 18  
Month to date heating degree days 420 472  
Since 1 July heating degree days 3849 3814  
Cooling Degree Days 0 0  
Month to date cooling degree days 0 0  
Year to date cooling degree days 0 0  
Growing Degree Days 2 (Base 50)    
Moisture  
Dew Point 44 °F    
Average Humidity 76    
Maximum Humidity 86    
Minimum Humidity 66    
Precipitation  
Precipitation 0.21 in 0.23 in 1.30 in (1905)
Month to date precipitation 8.20 6.13  
Year to date precipitation 21.96 23.52  
Sea Level Pressure  
Sea Level Pressure 29.64 in    
Wind  
Wind Speed 17 mph (South)    
Max Wind Speed 32 mph    
Max Gust Speed 56 mph    
Visibility 9 miles    
Events Rain    
T = Trace of Precipitation, MM = Missing Value Source: NWS Daily Summary

Daily Weather History Graph

Daily Weather History Graph

Search for Another Location

Airport or City:

Trip Planner

Search our weather history database for the weather conditions in past years. The results will help you decide how hot, cold, wet, or windy it might be!

Date:

Astronomy

Mar. 25, 2014 Rise Set
Actual Time 7:08 AM PDT 7:35 PM PDT
Civil Twilight 6:38 AM PDT 8:05 PM PDT
Nautical Twilight 6:03 AM PDT 8:40 PM PDT
Astronomical Twilight 5:26 AM PDT 9:17 PM PDT
Moon 3:51 AM PDT (3/25) 1:56 PM PDT (3/25)
Length of Visible Light 13h 26m
Length of Day
12h 26m
Waning Crescent, 31% of the Moon is Illuminated
Mar 25
Waning Crescent
Mar 30
New
Apr 7
First Quarter
Apr 15
Full
Apr 22
Last Quarter

Hourly Weather History & Observations

Time (PDT) Temp. Dew Point Humidity Pressure Visibility Wind Dir Wind Speed Gust Speed Precip Events Conditions
12:55 AM 51.1 °F 39.9 °F 66% 29.83 in 10.0 mi NNE 4.6 mph - 0.00 in Rain Light Rain
1:55 AM 50.0 °F 43.0 °F 77% 29.79 in 10.0 mi ESE 3.5 mph - 0.00 in   Overcast
2:55 AM 53.1 °F 46.0 °F 77% 29.79 in 10.0 mi South 5.8 mph - 0.02 in Rain Light Rain
3:55 AM 51.1 °F 46.9 °F 86% 29.75 in 10.0 mi SSE 4.6 mph - 0.03 in Rain Light Rain
4:55 AM 50.0 °F 46.9 °F 89% 29.72 in 7.0 mi East 5.8 mph - 0.03 in Rain Light Rain
5:55 AM 51.1 °F 45.0 °F 80% 29.70 in 10.0 mi SE 6.9 mph - 0.01 in   Overcast
6:55 AM 51.1 °F 43.0 °F 74% 29.67 in 10.0 mi East 9.2 mph - N/A   Overcast
7:55 AM 51.1 °F 44.1 °F 77% 29.66 in 10.0 mi SSE 3.5 mph - 0.00 in Rain Light Rain
8:55 AM 51.1 °F 44.1 °F 77% 29.63 in 10.0 mi ESE 6.9 mph - 0.00 in   Overcast
9:55 AM 50.0 °F 46.0 °F 86% 29.62 in 9.0 mi SSE 9.2 mph - 0.05 in Rain Light Rain
10:55 AM 51.1 °F 45.0 °F 80% 29.61 in 10.0 mi South 12.7 mph 20.7 mph 0.02 in Rain Light Rain
11:51 AM 53.6 °F 46.4 °F 77% 29.60 in 10.0 mi South 17.3 mph 31.1 mph 0.00 in   Mostly Cloudy
11:55 AM 54.0 °F 46.0 °F 75% 29.60 in 10.0 mi South 19.6 mph 31.1 mph 0.00 in   Mostly Cloudy
12:55 PM 55.9 °F 44.1 °F 64% 29.58 in 10.0 mi South 25.3 mph 40.3 mph N/A   Mostly Cloudy
1:06 PM 55.0 °F 45.0 °F 69% 29.58 in 8.0 mi South 25.3 mph 41.4 mph 0.00 in Rain Light Rain
1:55 PM 55.9 °F 45.0 °F 67% 29.57 in 10.0 mi SSW 26.5 mph 36.8 mph 0.01 in   Mostly Cloudy
2:40 PM 54.0 °F 45.0 °F 72% 29.56 in 10.0 mi South 20.7 mph 48.3 mph 0.00 in   Overcast
2:55 PM 55.0 °F 45.0 °F 69% 29.56 in 10.0 mi South 27.6 mph 42.6 mph 0.00 in   Overcast
3:42 PM 53.1 °F 45.0 °F 74% 29.56 in 5.0 mi SSW 26.5 mph 41.4 mph 0.00 in Rain Light Rain
3:55 PM 51.1 °F 46.9 °F 86% 29.57 in 2.0 mi SSW 26.5 mph 43.7 mph 0.02 in Rain Heavy Rain
4:08 PM 51.1 °F 46.9 °F 86% 29.57 in 5.0 mi SSW 25.3 mph 36.8 mph 0.01 in Rain Light Rain
4:55 PM 51.1 °F 45.0 °F 80% 29.61 in 7.0 mi SSW 25.3 mph 40.3 mph 0.02 in Rain Light Rain
5:41 PM 51.1 °F 43.0 °F 74% 29.62 in 10.0 mi SW 19.6 mph 36.8 mph 0.00 in   Overcast
5:55 PM 51.1 °F 43.0 °F 74% 29.63 in 10.0 mi SW 17.3 mph 27.6 mph 0.00 in   Overcast
6:55 PM 51.1 °F 44.1 °F 77% 29.64 in 10.0 mi SW 15.0 mph 25.3 mph N/A   Mostly Cloudy
7:51 PM 50.0 °F 44.6 °F 82% 29.64 in 10.0 mi SSW 15.0 mph 25.3 mph N/A   Overcast
7:55 PM 50.0 °F 44.1 °F 80% 29.64 in 10.0 mi SSW 12.7 mph 25.3 mph N/A   Overcast
8:55 PM 50.0 °F 44.1 °F 80% 29.65 in 10.0 mi SSW 12.7 mph - N/A   Overcast
9:50 PM 50.0 °F 44.6 °F 82% 29.65 in 10.0 mi SSW 12.7 mph 20.7 mph N/A   Overcast
9:55 PM 50.0 °F 43.0 °F 77% 29.65 in 10.0 mi SSW 12.7 mph 24.2 mph N/A   Overcast
10:40 PM 48.0 °F 41.0 °F 77% 29.65 in 10.0 mi South 8.1 mph - N/A   Mostly Cloudy
10:55 PM 48.0 °F 41.0 °F 77% 29.65 in 10.0 mi South 5.8 mph - N/A   Overcast
11:40 PM 48.0 °F 43.0 °F 83% 29.64 in 10.0 mi South 4.6 mph - N/A   Overcast
11:55 PM 50.0 °F 45.0 °F 83% 29.64 in 10.0 mi South 6.9 mph - N/A   Overcast